Location: Grainger
(51.5000°N, 113.3333°W)
Time: 22:24:20
(UTC+00:00)

BlueWalker 3 - Visible Passes

Search period start: 29 May 2023 00:00
Search period end: 08 June 2023 00:00
Orbit: 495 x 512 km, 53.2° (Epoch: 29 May)

Date Brightness Start Highest point End Pass type
(mag) Time Alt. Az. Time Alt. Az. Time Alt. Az.
29 May 1.9 05:40:42 10° SW 05:44:30 63° SSE 05:48:21 10° ENE visible
29 May 2.3 07:19:13 10° W 07:23:05 68° N 07:26:59 10° E visible
29 May 1.9 08:57:54 10° WNW 09:01:48 87° N 09:05:43 10° ESE visible
29 May 2.7 10:36:37 10° W 10:40:06 32° SW 10:43:36 10° SSE visible
30 May 1.9 05:20:21 10° WSW 05:24:10 64° SSE 05:28:01 10° ENE visible
30 May 2.3 06:58:54 10° W 07:02:45 68° N 07:06:39 10° E visible
30 May 1.9 08:37:34 10° WNW 08:41:28 88° NNE 08:45:23 10° ESE visible
30 May 2.7 10:16:17 10° W 10:19:46 31° SW 10:23:14 10° SSE visible
31 May 1.9 05:00:01 10° WSW 05:03:49 65° SSE 05:07:40 10° ENE visible
31 May 2.3 06:38:33 10° W 06:42:25 67° N 06:46:18 10° E visible
31 May 1.9 08:17:14 10° WNW 08:21:08 89° NE 08:25:02 10° ESE visible
31 May 2.7 09:55:57 10° W 09:59:24 30° SW 10:02:52 10° SSE visible
01 Jun 1.9 04:39:39 10° WSW 04:43:28 66° SSE 04:47:19 10° ENE visible
01 Jun 2.3 06:18:13 10° W 06:22:04 67° N 06:25:57 10° E visible
01 Jun 1.9 07:56:53 10° WNW 08:00:46 90° NNE 08:04:41 10° ESE visible
01 Jun 2.7 09:35:37 10° W 09:39:03 30° SW 09:42:29 10° SSE visible
02 Jun 2.3 05:57:51 10° W 06:01:43 67° N 06:05:36 10° E visible
02 Jun 1.9 07:36:31 10° WNW 07:40:25 89° S 07:44:19 10° ESE visible
02 Jun 2.8 09:15:16 10° W 09:18:41 29° SW 09:22:05 10° SSE visible
03 Jun 2.3 05:37:30 10° W 05:41:21 67° N 05:45:14 10° E visible
03 Jun 1.8 07:16:09 10° WNW 07:20:04 88° S 07:23:57 10° ESE visible
03 Jun 2.8 08:54:55 10° W 08:58:18 29° SW 08:59:40 23° S visible
04 Jun 2.3 05:17:08 10° W 05:20:59 67° N 05:24:51 10° E visible
04 Jun 1.8 06:55:47 10° WNW 06:59:41 87° SSW 07:03:35 10° ESE visible
04 Jun 2.8 08:34:33 10° W 08:37:55 28° SW 08:38:17 27° SSW visible
05 Jun 2.3 04:56:46 10° W 05:00:36 67° N 05:04:28 10° E visible
05 Jun 1.8 06:35:25 10° WNW 06:39:17 86° SSW 06:42:53 12° ESE visible
05 Jun 2.9 08:14:12 10° W 08:17:31 27° SW 08:17:31 27° SW visible
06 Jun 2.4 04:36:23 10° W 04:40:13 67° N 04:44:06 10° E visible
06 Jun 1.8 06:15:02 10° WNW 06:18:54 85° SSW 06:22:24 13° ESE visible
06 Jun 3.0 07:53:49 10° W 07:57:02 27° SW 07:57:02 27° SW visible
07 Jun 1.9 05:54:38 10° WNW 05:58:30 84° SSW 06:02:04 12° ESE visible
07 Jun 3.0 07:33:26 10° W 07:36:43 26° SW 07:36:43 26° SW visible
